Dewpoint
70 72 71 72 73 73 72 74 73 73 72 73 73 73 73 73 72 72 74 74 74 74 75 75 76 75 73 74 73 75 77 76 77 77 78 78 77 77 77 77 76 75 76 76 75 75 76 76 76 75 76 74 73 72 71 72 73 73 74 73 71 73 73 73 71 71 72 73 71 69 70 72 69 73 72 69 69 71 73 74 77 75 73 72 72
70 72 72 72 71 72 71 72 73 73 72 72 73 72 73 73 74 74 73 74 74 73 74 73 75 74 73 74 75 75 77 78 75 76 77 77 76 74 75 77 77 76 76 76 76 75 75 76 75 74 75 75 73 71 71 70 70 70 72 71 71 72 74 73 71 72 71 72 72 72 71 72 70 73 73 72 71 74 72 73 72 72 73 73 72
72 73 73 73 72 71 71 72 73 73 71 71 70 70 71 72 74 73 71 71 74 73 73 72 75 76 75 75 77 76 77 76 76 76 77 77 76 74 72 75 75 75 74 75 75 75 75 75 73 73 72 73 74 72 71 71 71 71 71 71 71 71 72 75 73 71 71 71 73 71 71 72 72 72 73 72 75 74 75 73 70 68 70 72 71
73 74 74 73 72 72 72 72 70 71 70 70 70 70 69 71 73 72 71 70 71 74 74 73 75 77 75 76 76 76 76 76 76 76 77 77 77 77 76 76 75 74 74 74 73 74 74 75 73 72 73 74 74 73 73 72 72 73 72 73 74 73 73 75 75 73 72 71 73 72 71 72 71 71 71 73 72 73 73 73 72 71 71 69 69
73 73 73 74 74 74 73 72 70 70 70 69 69 69 70 70 72 71 70 70 70 72 74 75 75 76 72 73 75 76 75 76 76 75 75 76 76 75 75 76 76 76 75 75 75 75 75 74 73 73 74 74 73 71 70 72 71 71 71 73 73 73 74 74 75 75 74 73 72 73 74 74 73 74 74 72 71 72 73 75 74 73 74 70 66
72 71 73 73 74 75 74 74 73 71 70 69 69 69 70 70 71 71 71 71 71 70 71 72 73 75 74 74 74 75 76 76 77 76 74 74 75 75 75 76 75 76 76 75 75 75 74 75 74 74 73 73 71 71 73 73 72 71 72 73 73 73 75 75 75 75 74 73 73 72 73 71 72 73 74 74 71 70 71 72 72 73 75 71 67
74 73 73 73 74 74 74 74 73 71 72 72 70 71 70 70 70 70 71 71 71 70 70 72 73 73 74 74 73 75 76 75 76 77 76 76 76 75 74 75 75 75 75 74 73 74 74 73 74 74 74 74 72 72 72 73 72 72 73 74 74 74 73 73 74 74 73 72 72 72 72 72 73 71 72 74 74 73 72 71 70 71 73 73 72
73 73 74 73 73 72 73 74 74 73 74 76 74 72 71 71 71 72 72 72 70 70 69 69 71 72 72 73 74 74 75 74 76 77 76 75 74 74 75 74 73 74 74 74 73 72 73 72 71 72 73 74 74 74 74 73 73 72 72 74 74 74 73 72 73 73 72 71 71 70 70 72 73 72 72 74 74 74 74 71 69 70 70 73 73
73 74 74 74 73 73 73 73 74 75 75 75 75 75 73 73 73 73 73 72 70 70 70 69 69 70 71 72 73 72 71 72 72 74 74 75 74 73 73 74 73 74 74 73 73 74 73 72 71 70 73 75 76 75 74 75 72 73 74 75 75 75 74 73 73 73 73 72 72 72 72 72 72 72 70 71 70 69 70 71 71 71 71 71 73
73 72 72 72 73 73 74 74 74 74 74 74 75 74 73 73 72 72 72 72 72 73 72 72 70 70 70 72 72 70 70 70 74 71 72 73 74 72 72 74 74 74 74 74 72 72 71 71 70 74 76 76 76 75 72 72 73 72 73 74 75 75 75 74 73 73 73 72 70 70 68 68 66 68 68 68 70 72 71 72 70 69 71 71 72
71 71 70 71 71 72 72 72 72 73 72 72 72 73 74 73 73 73 73 72 73 74 73 72 71 70 69 69 69 68 68 68 70 66 66 68 72 73 73 74 75 75 73 74 74 72 71 72 72 73 75 75 75 74 73 72 72 72 72 72 74 75 73 72 73 73 72 71 70 71 69 70 70 70 69 67 67 69 69 71 70 70 70 70 69
70 70 71 71 71 70 70 70 71 72 72 71 71 71 72 72 73 73 73 72 73 72 70 71 72 70 69 69 68 67 67 71 65 64 65 65 68 72 71 72 71 73 73 72 72 72 71 71 70 69 71 73 73 74 76 75 73 72 71 71 71 72 72 74 74 73 73 72 72 72 71 71 71 72 69 68 69 69 70 70 71 71 71 70 70
69 70 70 71 71 71 71 70 71 72 72 71 70 70 70 71 71 72 71 72 72 73 73 71 71 70 69 70 69 68 67 67 64 63 63 63 64 69 70 71 70 70 71 73 72 73 73 73 71 71 69 73 73 73 75 75 75 72 71 71 71 70 67 67 69 74 72 73 72 72 72 72 72 72 72 71 73 71 71 69 71 71 71 71 70
65 65 66 67 69 71 71 71 71 71 71 71 71 71 70 70 72 72 72 72 72 73 72 73 73 74 73 72 72 70 69 70 65 63 62 62 62 65 69 69 70 70 71 72 71 72 74 74 73 72 72 73 74 74 74 74 74 75 75 75 74 74 73 68 67 67 70 71 72 72 73 74 73 73 74 74 73 71 70 69 71 70 70 71 72
64 65 64 64 64 64 65 66 66 67 69 70 71 71 71 72 72 72 73 73 73 73 72 72 73 73 72 71 71 70 68 69 67 64 62 60 60 64 68 68 69 70 71 72 73 72 73 73 73 72 73 74 74 74 73 73 74 74 74 73 73 74 74 72 72 71 71 69 70 71 72 72 73 73 73 73 73 73 72 72 71 71 71 72 72
62 63 62 62 62 63 62 63 63 64 65 65 65 66 67 67 68 71 72 73 73 74 72 72 72 73 73 73 72 71 71 64 63 64 61 61 62 66 69 71 71 70 71 72 72 74 73 73 73 73 74 74 74 70 72 73 72 73 73 73 73 73 72 73 69 69 71 70 71 70 70 70 67 72 73 70 70 72 73 71 71 72 72 71 70
61 62 62 62 62 62 62 62 62 63 63 63 64 64 65 66 67 69 70 71 72 72 72 72 73 73 73 72 72 72 71 66 61 61 61 60 63 71 72 71 72 72 71 72 73 72 72 73 74 72 72 73 68 61 64 70 72 73 73 72 72 71 71 71 68 64 63 62 62 62 62 62 62 61 60 61 67 69 70 69 69 68 69 69 69
60 60 60 61 62 62 63 63 63 63 63 63 64 66 66 66 66 67 68 70 71 71 72 72 72 73 73 73 72 73 72 68 62 58 58 59 62 72 72 72 72 72 71 72 72 72 72 70 71 73 74 74 61 60 63 71 74 73 73 72 72 71 72 72 72 71 65 61 60 60 60 60 60 60 60 60 60 63 69 68 67 68 69 69 68
57 58 58 59 60 61 61 62 62 62 63 63 64 64 65 66 66 67 68 68 70 71 72 72 72 72 72 73 72 72 71 69 60 58 57 58 68 73 73 73 72 72 71 72 72 72 73 72 72 73 73 67 58 59 61 69 72 72 72 71 70 70 71 73 73 73 73 72 73 75 73 67 69 70 71 65 63 66 67 68 68 68 69 68 68
56 57 57 58 59 59 60 61 61 61 61 61 62 64 64 65 67 67 67 68 68 71 72 72 71 70 69 70 71 71 69 67 65 56 55 57 61 73 73 72 72 72 72 72 72 73 73 73 71 64 59 59 58 57 58 59 68 70 70 70 70 70 70 71 72 72 72 70 72 73 73 74 73 73 73 73 72 71 70 70 70 69 70 69 70
58 58 58 56 56 58 59 60 60 60 60 61 60 61 64 64 65 67 68 69 68 70 71 71 66 67 67 67 69 69 67 66 67 57 54 54 58 66 72 72 72 72 72 72 72 71 72 71 71 64 60 59 56 52 52 55 59 67 70 69 69 71 67 68 70 71 71 71 71 71 71 72 72 72 71 72 71 71 71 72 71 71 71 70 70
57 58 58 57 55 55 57 58 59 58 60 61 60 61 63 61 62 63 64 66 65 66 67 67 67 66 67 67 67 68 68 66 68 61 55 54 54 58 69 68 68 71 72 71 71 71 70 70 71 66 57 55 52 50 50 51 55 63 67 60 58 59 67 68 69 69 69 69 69 68 69 69 69 70 70 71 70 71 71 71 71 71 73 72 72
57 57 58 57 57 56 57 56 57 56 58 59 59 59 60 61 62 63 63 63 63 63 63 64 64 64 65 66 67 67 68 67 64 67 57 53 53 55 54 63 60 71 69 68 69 67 69 70 70 66 55 51 49 49 50 51 55 63 57 55 55 56 62 66 67 68 68 68 68 69 69 70 70 70 71 71 71 72 72 72 72 73 75 75 74
56 55 56 56 56 55 54 54 55 56 57 58 59 59 59 60 61 61 62 62 61 62 62 63 62 60 60 61 62 63 64 66 65 64 62 54 53 52 53 54 56 65 68 64 66 69 71 70 66 53 50 48 48 50 51 53 60 55 52 53 55 58 64 67 68 69 68 68 68 68 69 69 70 70 70 72 71 72 72 73 73 73 74 74 74
54 53 53 53 54 54 54 54 55 55 55 55 57 57 57 59 59 60 60 60 60 61 62 62 61 60 58 58 60 61 61 62 63 63 63 61 55 53 54 55 58 57 65 66 67 68 59 52 51 51 52 51 51 52 55 58 56 54 54 55 61 69 70 69 70 70 69 69 68 69 69 69 70 71 72 73 73 72 73 72 73 73 74 74 74
54 54 53 53 53 53 53 52 53 54 54 54 55 55 54 55 57 58 57 57 59 59 60 61 61 60 57 56 58 58 60 61 62 63 62 61 61 58 57 57 62 61 62 64 61 57 55 55 53 54 57 61 68 69 69 69 62 59 58 62 70 69 70 71 70 70 69 69 69 69 69 69 70 72 72 72 72 72 72 72 71 71 72 72 71
54 54 54 52 55 55 55 52 51 51 52 50 50 52 53 53 54 56 55 53 55 55 56 57 57 56 56 56 57 58 58 60 61 62 63 62 62 62 63 64 62 61 65 67 64 64 64 64 63 58 57 57 59 61 62 65 69 68 68 67 67 69 69 69 69 69 68 68 67 68 69 69 71 71 71 71 71 72 72 71 71 71 71 71 71
51 52 51 53 54 53 53 54 53 50 51 51 50 51 50 50 51 54 55 54 54 54 54 56 54 54 53 54 56 56 56 57 60 59 59 59 59 61 61 62 63 63 63 63 63 63 64 64 62 69 70 68 67 65 65 67 65 63 62 60 60 64 66 66 66 68 67 66 66 68 69 70 69 69 69 69 70 70 72 71 71 71 70 71 71
53 51 51 51 52 54 52 52 51 51 51 53 53 54 52 52 54 55 54 55 53 51 52 51 52 51 52 54 54 56 56 56 58 51 58 49 54 56 60 61 58 59 58 51 60 63 65 65 64 63 63 63 62 61 59 58 58 58 57 56 56 57 59 61 64 64 64 64 64 65 65 66 67 68 68 68 69 69 71 71 71 71 72 71 70
52 52 51 50 50 51 51 51 53 53 50 50 52 54 56 53 53 54 52 55 53 49 47 54 53 53 54 56 57 55 54 55 50 45 43 42 43 43 44 42 42 49 50 50 55 63 64 62 62 61 61 58 55 54 53 53 54 54 54 55 55 53 56 60 61 61 62 63 62 62 63 64 63 64 65 66 67 67 68 67 70 71 70 70 69
51 51 52 52 52 52 51 51 52 54 54 53 54 54 53 59 47 48 51 53 49 45 45 45 46 48 55 54 55 53 52 49 45 43 41 42 41 41 40 41 41 41 43 55 62 63 61 60 59 58 56 55 54 54 54 54 54 54 53 53 53 54 56 58 59 60 60 59 61 61 61 62 62 63 63 64 64 65 66 68 69 70 70 69 69
50 50 50 51 52 53 52 53 52 53 53 54 54 53 52 53 55 51 49 50 49 46 45 44 45 46 47 50 53 56 53 48 43 41 42 42 42 40 40 41 41 40 41 43 62 61 60 60 57 56 56 54 54 55 53 53 53 54 54 52 53 54 57 58 59 59 59 59 58 58 60 60 61 61 62 62 63 63 65 65 67 68 68 69 69
48 50 51 50 50 52 51 52 52 51 51 52 52 52 51 52 51 52 54 50 50 49 48 47 46 46 46 46 45 46 46 44 43 43 42 42 41 41 41 42 42 41 43 57 61 59 58 57 55 56 55 54 55 54 55 53 53 53 53 54 53 54 57 59 60 59 58 58 58 57 58 59 58 59 59 60 61 62 63 64 65 66 67 68 68
48 49 50 51 51 50 50 51 50 50 50 51 51 51 51 51 51 51 51 51 52 54 50 49 48 48 48 47 46 45 45 44 43 43 42 43 41 42 43 52 39 39 44 62 59 57 56 55 54 55 55 55 54 53 54 54 54 55 55 54 54 56 59 60 59 57 56 56 56 56 57 57 57 59 59 59 59 60 61 61 63 64 65 66 66
46 46 47 49 50 49 49 49 49 50 49 50 50 50 50 51 51 51 51 51 51 51 51 53 50 48 54 52 48 45 45 45 44 43 44 43 42 42 41 58 60 60 60 61 59 56 55 55 55 55 55 54 55 54 54 55 54 54 53 54 54 55 56 56 55 57 56 56 56 56 56 56 57 57 58 57 57 58 58 59 60 61 62 63 63
45 45 46 46 47 48 48 50 49 48 48 49 50 49 49 48 48 50 51 51 51 51 51 52 53 51 51 49 48 47 45 45 45 43 44 44 42 40 59 57 55 56 56 57 56 55 55 55 54 54 54 53 54 54 54 53 54 53 54 54 53 54 54 54 54 55 55 55 55 55 54 55 56 56 56 56 57 57 57 57 57 58 59 60 62
44 44 44 45 47 47 48 49 49 49 47 49 49 49 49 49 50 50 50 50 50 50 51 52 52 52 52 53 53 49 46 46 46 46 44 44 41 54 57 57 55 55 56 55 55 54 54 54 54 55 54 53 53 52 53 53 54 55 54 54 55 55 53 53 53 54 54 53 53 55 55 54 55 56 55 55 55 55 56 56 56 56 56 56 57
44 44 45 47 47 48 47 47 47 47 49 48 49 49 48 49 50 49 49 49 49 48 49 49 49 51 50 52 53 52 51 48 47 48 49 49 57 55 55 56 57 56 55 54 55 55 54 54 55 55 54 53 54 53 53 53 52 52 53 54 54 54 53 52 54 55 55 53 53 53 53 53 53 54 54 54 54 54 54 54 54 53 54 54 55
45 43 43 45 45 45 45 45 46 46 47 47 47 48 48 48 48 47 47 47 47 47 49 49 49 49 50 50 50 50 50 49 50 50 51 52 52 52 53 54 55 55 56 56 55 56 55 54 54 55 55 54 54 54 53 52 52 51 53 52 52 51 51 51 52 53 52 52 52 52 51 51 52 53 53 53 52 53 53 53 53 53 53 53 53
43 43 43 43 43 43 44 45 45 45 45 46 46 46 46 46 45 45 46 46 47 48 47 47 47 47 48 49 48 47 47 48 49 49 50 50 50 51 51 52 53 54 54 55 55 55 55 55 55 55 55 55 54 53 52 53 52 50 51 50 50 50 50 50 50 50 50 50 50 50 50 51 52 52 52 52 51 51 51 51 51 52 52 52 52
43 44 43 42 42 43 43 43 44 44 45 45 45 44 44 45 45 46 45 46 45 45 45 45 45 47 48 48 44 44 47 47 48 48 48 48 49 50 50 51 51 51 52 53 54 55 56 56 55 54 54 53 53 52 52 51 51 51 49 50 49 49 48 49 50 49 49 49 49 49 50 50 51 50 50 50 50 50 50 50 51 50 49 50 50
43 43 43 42 43 42 42 42 43 43 43 44 44 43 44 44 45 45 45 45 44 44 44 45 46 47 46 44 43 43 46 47 47 46 46 46 47 48 48 49 50 52 51 52 53 54 55 55 54 53 52 52 51 51 50 51 49 49 49 48 48 48 49 47 47 49 49 48 49 49 50 49 50 49 49 49 49 49 49 49 49 49 49 49 49
43 42 42 43 42 41 40 40 41 42 42 42 42 44 45 45 44 44 44 44 44 45 44 44 44 45 45 45 47 45 45 45 45 45 45 45 46 46 46 46 48 49 51 52 53 52 52 51 51 51 50 50 50 50 48 48 49 48 47 48 48 48 48 47 47 47 47 47 48 48 49 49 48 48 48 49 48 48 48 48 48 48 48 49 49
39 38 39 39 40 40 40 40 41 42 42 43 44 44 44 44 44 44 43 43 43 43 43 43 43 43 44 44 44 43 43 43 42 42 44 45 45 45 46 46 46 47 47 48 49 50 49 49 49 49 49 48 48 49 48 48 48 47 47 47 47 47 47 47 48 47 46 46 47 47 47 48 48 48 47 48 47 46 46 47 47 47 47 47 47
37 38 38 38 39 40 40 42 41 42 44 43 43 43 44 43 42 42 41 41 42 42 41 41 41 42 42 42 42 41 40 40 41 42 43 43 43 44 44 45 46 47 47 47 47 49 48 47 47 47 47 47 47 47 47 47 47 46 46 46 46 46 46 47 47 47 46 47 47 47 47 46 46 46 46 45 46 46 45 46 45 46 46 46 46
37 38 38 38 39 40 41 40 42 42 41 42 41 41 40 40 40 40 41 41 41 40 40 40 40 40 41 40 39 39 39 40 40 41 41 42 42 43 44 44 45 46 46 46 46 47 46 46 46 46 46 46 46 45 45 46 45 46 46 46 46 47 47 47 47 46 47 47 46 46 46 45 45 45 46 44 44 44 44 45 45 45 46 46 46
39 39 37 38 38 39 40 40 39 40 40 39 39 39 38 38 38 39 39 39 39 40 39 38 38 38 38 38 38 39 40 40 40 40 41 42 43 44 44 44 44 45 45 45 46 45 46 46 46 45 45 45 45 45 45 45 45 44 46 46 46 46 45 46 46 46 46 46 46 45 44 44 43 43 44 43 43 43 44 43 43 45 45 45 45
37 36 36 37 37 36 37 37 38 38 37 36 36 36 36 36 36 37 37 37 37 37 37 37 37 37 38 38 39 39 40 40 40 41 41 42 43 43 43 44 43 43 44 44 45 44 44 44 45 45 44 44 44 44 44 44 44 44 44 45 45 45 46 45 46 45 45 45 44 43 43 42 41 42 42 42 42 42 42 42 43 44 45 45 45
36 36 35 36 35 34 35 35 36 34 35 35 34 34 35 35 36 35 35 35 34 35 35 36 36 37 37 37 38 39 38 40 39 40 40 41 42 42 42 42 42 42 42 42 42 43 43 43 43 43 43 44 44 43 43 43 43 43 43 43 43 43 39 40 41 42 40 41 41 41 42 42 42 42 42 42 42 42 42 43 43 43 44 45 45
34 34 34 35 35 34 36 35 34 34 34 34 34 34 34 34 33 34 33 34 34 34 34 35 35 35 35 36 37 37 38 39 39 40 41 41 41 41 40 41 41 41 41 41 41 42 42 42 43 43 42 43 43 43 42 42 43 42 43 43 40 37 37 38 39 40 40 40 40 41 40 41 41 41 40 41 41 41 41 42 43 44 44 44 45
35 34 35 35 34 35 34 34 34 34 33 34 34 33 33 33 33 33 33 33 33 34 34 34 34 35 35 35 37 37 38 38 38 38 39 39 39 39 40 41 40 40 40 40 40 41 41 41 41 41 41 42 42 42 42 41 42 42 40 39 37 36 37 38 40 38 39 39 40 39 38 39 40 39 40 40 40 40 41 42 43 43 44 44 44